Location: Bothwell
(42.3833°S, 147.0000°E)
Time: 22:40:37
(UTC+11:00)

CUTE-I - Pass Details

Date: 01 October 2022
Orbit: 810 x 823 km, 98.7° (Epoch: 30 November)

Event Time Altitude Azimuth Distance (km) Brightness Sun altitude
Rises 19:56:45 0° 180° (S) 3,394 ? -18.5°
Reaches altitude 10° 19:59:40 10° 196° (SSW) 2,455 ? -18.9°
Maximum altitude 20:03:33 20° 242° (WSW) 1,821 ? -19.6°
Drops below altitude 10° 20:07:25 10° 287° (WNW) 2,438 ? -20.3°
Sets 20:10:19 0° 303° (WNW) 3,363 ? -20.7°
